Date,TemperatureHighF,TemperatureAvgF,TemperatureLowF,DewpointHighF,DewpointAvgF,DewpointLowF,HumidityHigh,HumidityAvg,HumidityLow,PressureMaxIn,PressureMinIn,WindSpeedMaxMPH,WindSpeedAvgMPH,GustSpeedMaxMPH,PrecipitationSumIn
2013-1-1,33,29,21,33,29,20,99,98,92,30.25,30.14,10,3,10,0.00
2013-1-2,34,22,14,23,16,12,97,81,56,30.40,30.22,13,2,13,0.00
2013-1-3,39,24,6,26,18,6,99,81,59,30.40,30.30,18,3,18,0.01
2013-1-4,38,29,26,26,24,20,91,79,62,30.44,30.32,21,6,21,0.01
2013-1-5,43,32,25,30,26,20,90,78,58,30.55,30.30,12,3,12,0.02
2013-1-6,41,35,30,35,32,27,99,87,71,30.41,30.17,11,2,11,0.00
2013-1-7,42,30,20,32,28,20,99,92,64,30.63,30.41,9,2,9,0.00
2013-1-8,52,32,16,37,27,16,99,85,53,30.53,30.42,12,1,12,0.00
2013-1-9,52,39,26,47,37,26,99,93,80,30.67,30.40,18,3,18,0.04
2013-1-10,44,38,27,37,32,27,99,82,71,30.78,30.43,4,1,4,0.00
2013-1-11,55,47,40,54,45,14,99,92,71,30.43,30.14,8,1,8,0.11
2013-1-12,67,57,50,66,56,50,99,99,92,30.28,30.12,8,1,8,0.00
2013-1-13,73,62,56,65,59,-5,99,92,72,30.15,30.05,14,3,14,0.07
2013-1-14,57,38,29,57,34,27,99,87,67,30.54,30.10,21,4,21,0.02
2013-1-15,32,29,24,31,27,24,99,91,80,30.56,30.21,10,4,11,0.01
2013-1-16,33,32,31,33,32,30,99,99,99,30.23,30.07,7,0,7,0.05
2013-1-17,34,32,29,34,31,26,99,99,87,30.37,30.21,4,0,4,0.39
2013-1-18,36,28,17,26,18,10,90,66,52,30.66,30.37,103,3,103,24.19
2013-1-19,58,46,33,29,24,17,57,45,32,30.40,30.01,22,6,22,0.02
2013-1-20,45,35,23,35,22,14,73,59,42,30.32,29.97,27,6,27,0.06
2013-1-21,30,23,15,20,16,6,85,73,59,30.27,30.07,18,3,18,0.00
2013-1-22,19,10,6,5,0,-2,79,65,44,30.43,30.28,17,3,17,0.00
2013-1-23,18,12,4,12,4,-1,92,70,49,30.46,30.21,11,2,11,0.00
2013-1-24,27,16,10,18,8,-1,98,75,42,30.69,30.21,15,3,15,0.00
2013-1-25,20,15,10,18,12,4,99,89,71,30.63,30.17,24,1,24,0.00
2013-1-26,31,23,17,28,21,16,99,92,75,30.61,30.25,13,2,13,0.00
2013-1-27,37,24,10,24,19,9,99,81,56,30.70,30.45,7,1,7,0.01
2013-1-28,50,42,29,50,41,24,99,98,81,30.46,30.19,15,4,15,0.08
2013-1-29,70,58,50,62,55,49,99,93,72,30.24,29.94,12,3,12,0.00
2013-1-30,68,57,41,62,54,41,99,93,77,29.94,29.45,26,5,26,0.40
2013-1-31,41,27,21,41,24,17,99,88,65,30.04,29.51,24,5,24,0.05
2013-2-1,23,15,7,21,9,4,99,79,58,30.50,29.99,21,3,21,0.01
2013-2-2,26,18,6,23,15,4,99,91,78,30.47,30.12,11,2,11,0.00
2013-2-3,30,23,17,29,22,15,99,96,85,30.21,30.00,15,2,15,0.00
2013-2-4,30,23,16,26,21,10,99,92,69,30.25,30.02,11,2,11,0.91
2013-2-5,34,29,26,34,28,26,99,99,94,30.14,29.99,10,1,10,0.01
2013-2-6,37,27,16,29,24,16,99,91,62,30.50,30.13,49,1,49,0.00
2013-2-7,50,33,16,35,27,16,99,86,58,30.47,30.12,7,2,7,0.01
2013-2-8,38,32,25,38,31,25,99,98,91,30.35,29.98,16,2,16,0.06
2013-2-9,27,24,23,25,22,20,99,91,82,30.56,30.35,0,0,0,0.00
2013-2-17,17,13,10,8,7,6,82,74,68,30.43,30.40,3,0,3,0.00
2013-2-18,48,30,6,34,20,4,97,69,44,30.45,30.04,11,2,11,0.01
2013-2-19,46,36,23,44,32,18,99,87,55,30.14,29.86,24,6,24,0.11
2013-2-20,28,20,18,20,16,13,99,82,64,30.39,30.14,17,4,17,0.00
2013-2-21,30,23,18,21,17,16,98,80,63,30.48,30.35,11,3,11,0.00
2013-2-22,24,24,24,16,16,16,73,73,73,30.48,30.48,4,4,6,0.00
2013-2-23,24,24,24,16,16,16,73,73,73,30.48,30.48,4,4,6,0.00
2013-2-24,24,24,24,16,16,16,73,73,73,30.48,30.48,4,4,6,0.00
2013-2-25,24,24,24,16,16,16,73,73,73,30.48,30.48,4,4,6,0.00
2013-2-26,24,24,24,16,16,16,73,73,73,30.48,30.48,4,4,6,0.00
2013-2-27,24,24,24,16,16,16,73,73,73,30.48,30.48,4,4,6,0.00
2013-3-5,46,40,32,33,23,19,99,56,37,29.98,29.84,11,4,11,0.00
2013-3-6,43,36,31,39,32,20,99,88,74,30.29,29.84,14,2,14,0.08
2013-3-7,45,35,32,38,33,30,99,93,65,30.47,30.28,19,4,19,0.00
2013-3-8,37,32,27,33,30,26,99,92,80,30.58,30.45,17,5,17,0.01
2013-3-9,61,41,21,39,30,21,99,69,39,30.58,30.34,7,1,7,0.00
2013-3-10,77,57,40,46,35,26,61,47,32,30.35,30.17,11,2,11,0.00
2013-3-11,66,56,45,52,40,35,99,59,39,30.17,29.88,15,3,15,0.11
2013-3-12,45,39,31,44,36,29,99,91,79,30.18,29.97,20,4,20,0.01
2013-3-13,40,32,26,35,29,23,99,91,60,30.32,30.10,21,4,21,0.06
2013-3-14,26,26,25,23,22,21,88,87,86,30.32,30.31,11,4,11,0.00
2013-3-24,44,36,32,34,31,26,99,85,52,29.85,29.70,11,4,11,0.00
2013-3-25,41,34,31,40,34,30,99,99,99,29.94,29.63,12,2,12,0.44
2013-3-26,43,36,31,39,34,26,99,93,77,30.26,29.94,17,3,17,0.11
2013-3-27,48,37,32,38,32,28,99,82,54,30.34,30.23,16,3,16,0.05
2013-3-28,46,39,34,35,32,30,93,79,60,30.44,30.30,15,3,15,0.00
2013-3-29,59,45,35,40,32,26,95,65,34,30.45,30.34,14,2,14,0.00
2013-4-7,71,63,54,53,50,45,79,66,51,30.21,30.09,19,4,19,0.06
2013-4-8,78,64,-11,58,51,-23,96,67,46,30.24,30.09,18,4,18,0.07
2013-4-9,85,72,-2,67,59,-5,92,67,49,30.31,30.12,49,3,49,0.14
2013-4-10,83,70,59,68,63,56,99,79,59,30.18,30.00,25,4,25,0.13
2013-4-11,59,58,58,58,58,57,99,99,99,30.10,30.07,3,0,4,0.00
2013-4-12,66,53,44,65,48,38,99,84,64,30.07,29.72,20,5,20,0.22
2013-4-13,60,46,36,43,38,17,98,75,51,30.24,30.06,15,4,15,0.05
2013-4-14,67,43,-3,44,31,-13,99,66,43,30.35,30.18,8,2,8,108.90
2013-4-15,73,53,-3,56,43,-13,88,69,53,30.30,30.16,49,3,49,108.90
2013-4-16,83,66,53,68,60,53,99,84,60,30.39,30.23,18,4,18,0.46
2013-4-17,72,60,52,64,57,48,99,93,73,30.45,30.28,9,2,9,0.01
2013-4-18,89,74,58,70,64,58,99,74,50,30.29,29.96,19,5,19,0.00
2013-4-19,71,58,42,68,52,33,99,84,69,30.09,29.71,19,6,19,0.17
2013-4-20,54,42,34,37,31,25,93,68,47,30.60,30.09,21,5,21,0.00
2013-4-21,57,42,27,34,27,22,99,60,33,30.76,30.59,11,3,11,0.00
2013-4-22,67,52,40,41,32,26,65,48,32,30.63,30.45,13,3,13,0.00
2013-4-23,78,58,37,50,41,24,91,56,35,30.45,30.13,8,2,8,0.00
2013-4-24,74,56,37,63,49,-2,99,81,56,30.37,29.96,25,5,25,0.28
2013-4-25,62,49,32,47,38,31,99,71,40,30.54,30.36,20,4,20,0.00
2013-4-26,66,50,25,46,37,25,99,67,37,30.65,30.53,53,2,53,0.01
2013-4-27,80,59,35,48,41,35,99,59,30,30.57,30.34,8,2,8,0.07
2013-4-28,64,56,51,64,52,45,99,89,62,30.35,30.13,10,2,10,0.17
2013-4-29,70,58,11,66,58,51,99,98,82,30.23,30.13,13,1,13,0.08
2013-4-30,79,63,51,64,57,50,99,84,59,30.39,30.22,11,2,11,0.01
2013-5-1,82,66,52,62,53,39,99,68,44,30.51,30.38,17,2,17,0.00
2013-5-2,82,66,50,54,43,37,72,48,27,30.55,30.39,9,2,9,0.00
2013-5-3,80,64,49,54,46,41,76,55,32,30.45,30.35,14,3,14,0.00
2013-5-4,75,61,46,49,44,38,77,56,37,30.40,30.27,13,4,13,0.00
2013-5-5,79,62,48,48,39,28,84,50,24,30.34,30.21,16,3,16,0.00
2013-5-6,74,61,46,60,52,39,99,75,58,30.28,30.19,13,3,13,0.00
2013-5-7,104,59,56,63,58,6,99,99,96,30.22,30.17,8,2,8,0.02
2013-5-8,80,67,53,64,56,52,99,72,44,30.19,30.09,51,2,51,3.12
2013-5-9,82,66,54,66,58,52,99,79,45,30.20,30.11,14,2,14,0.00
2013-5-10,80,64,56,72,62,4,99,95,69,30.21,30.01,30,2,30,0.34
2013-5-11,61,56,49,61,56,48,99,99,96,30.04,29.98,11,3,11,0.17
2013-5-12,57,49,38,51,38,10,99,68,48,30.27,30.03,21,5,21,0.00
2013-5-13,56,45,33,38,31,25,93,62,42,30.37,30.24,17,4,17,0.00
2013-5-14,68,51,28,47,40,28,99,71,44,30.37,30.06,9,2,9,0.01
2013-5-15,54,52,51,48,46,44,82,77,74,30.08,30.04,2,0,2,0.00
2013-6-7,67,63,58,67,62,57,99,99,99,30.08,29.96,53,5,53,0.05
2013-6-8,76,64,56,65,60,56,99,89,68,30.32,30.07,11,1,11,0.00
2013-6-9,90,74,56,74,67,56,99,83,57,30.37,30.22,8,2,8,0.00
2013-6-10,80,70,65,79,70,65,99,99,95,30.23,30.00,10,2,10,0.14
2013-6-11,80,70,64,77,68,64,99,95,77,30.11,30.01,13,3,13,0.12
2013-6-12,87,76,65,79,73,65,99,91,71,30.13,29.94,11,2,11,0.01
2013-6-13,73,70,67,72,70,67,99,99,99,29.97,29.86,13,2,13,0.11
2013-6-25,68,66,66,67,66,66,99,99,99,30.18,30.13,13,2,13,0.34
2013-6-26,86,74,66,80,72,65,99,95,79,30.19,30.02,10,2,10,1.02
2013-6-27,81,71,66,80,71,66,99,99,95,30.03,29.86,13,2,13,0.35
2013-6-28,82,70,62,80,69,62,99,98,90,29.87,29.71,17,2,17,0.05
2013-6-29,84,71,59,76,68,35,99,92,35,29.93,29.77,24,2,24,0.07
2013-6-30,93,73,58,80,71,-38,99,93,66,30.07,29.91,100,2,100,0.48
2013-7-1,82,73,66,80,71,66,99,96,82,30.18,30.03,9,2,9,0.17
2013-7-2,88,76,66,83,74,-25,99,94,77,30.27,30.14,49,1,49,0.15
2013-7-3,92,78,68,81,75,68,99,90,66,30.38,30.27,8,2,8,0.00
2013-7-4,92,78,69,81,74,69,99,89,65,30.44,30.33,8,2,49,0.04
2013-7-5,90,77,68,82,75,68,99,92,74,30.38,30.30,14,2,14,0.01
2013-7-6,94,81,69,84,77,69,99,89,65,30.39,30.24,11,2,11,0.07
2013-7-7,83,74,68,80,73,67,99,99,87,30.33,30.23,10,2,10,0.11
2013-7-8,87,74,64,78,72,64,99,95,75,30.33,30.25,14,2,14,0.46
2013-7-9,87,74,68,85,74,68,99,98,90,30.32,30.18,17,3,17,0.71
2013-7-10,89,73,65,89,72,64,99,99,95,30.23,30.04,28,3,28,1.13
2013-7-11,65,65,64,65,64,64,99,99,99,30.13,30.11,5,1,5,0.00
2013-7-22,71,70,69,70,69,69,99,99,99,30.02,29.99,3,0,3,0.15
2013-7-23,88,77,67,80,73,64,99,89,70,30.02,29.93,19,7,19,0.04
2013-7-24,81,69,61,75,64,61,99,84,78,30.22,29.99,19,9,19,0.04
2013-7-25,68,68,68,62,62,62,80,80,80,30.30,30.19,8,8,8,0.04
2013-7-26,68,68,68,62,62,62,80,80,80,30.31,30.20,8,8,8,0.04
2013-7-27,73,68,66,73,63,62,99,85,80,30.20,30.06,8,6,8,0.11
2013-7-28,80,68,56,74,65,56,99,90,64,30.26,30.06,13,2,13,0.07
2013-7-29,79,65,52,67,60,52,99,85,63,30.41,30.25,13,2,13,0.00
2013-7-30,84,69,54,72,63,54,99,84,59,30.44,30.35,8,1,8,0.00
2013-7-31,86,69,57,77,68,57,99,94,68,30.37,30.15,9,1,9,0.02
2013-8-1,84,72,63,77,69,62,99,91,70,30.16,30.07,10,2,10,0.01
2013-8-2,74,61,58,73,61,58,99,99,99,30.18,30.12,5,0,5,0.00
2013-8-11,86,86,86,85,85,85,94,94,94,30.27,30.19,4,4,4,0.01
2013-8-12,86,86,86,85,85,85,94,94,94,30.27,30.06,4,4,4,0.01
2013-8-13,86,86,86,85,85,85,94,94,94,30.20,30.02,4,4,4,0.01
2013-8-14,86,86,86,85,85,85,94,94,94,30.20,30.18,4,4,4,0.01
2013-8-15,64,58,54,59,56,53,99,95,76,29.95,29.92,2,0,2,0.04
2013-8-16,87,67,52,68,60,52,99,80,49,29.99,29.92,8,1,8,0.01
2013-8-17,80,62,54,70,59,53,99,92,61,30.06,29.98,10,1,10,0.00
2013-8-18,68,68,68,68,68,68,99,99,99,29.94,29.94,3,1,3,0.04
2013-8-19,66,63,61,66,62,60,99,99,99,29.85,29.82,2,0,2,0.11
2013-8-20,90,71,55,76,66,55,99,85,55,29.93,29.83,6,1,6,0.05
2013-8-21,90,74,58,78,69,57,99,86,58,29.93,29.78,6,1,6,0.00
2013-8-22,89,75,65,81,73,65,99,95,71,29.84,29.70,19,2,19,0.12
2013-8-23,88,72,67,80,70,67,99,93,63,29.81,29.71,7,1,7,0.05
2013-9-18,83,65,44,64,58,44,99,81,52,30.01,29.88,9,1,9,0.02
2013-9-19,86,69,59,73,66,59,99,90,61,29.92,29.80,8,1,8,0.00
2013-9-20,86,71,58,80,70,58,99,96,81,29.82,29.60,11,2,11,0.00
2013-9-21,70,63,55,69,63,55,99,99,99,29.60,29.48,11,2,11,0.44
2013-9-22,68,57,52,62,54,50,99,90,67,29.80,29.58,13,4,13,0.00
2013-9-23,65,52,41,53,49,41,99,90,64,29.91,29.79,9,2,9,0.00
2013-9-24,80,55,38,60,48,38,99,83,48,29.88,29.73,10,1,10,0.00
2013-9-25,84,60,44,65,54,43,99,84,51,29.75,29.65,8,1,8,0.01
2013-9-26,82,63,48,67,56,47,99,81,44,29.87,29.71,11,2,11,0.00
2013-9-27,85,63,46,66,56,46,99,83,49,29.97,29.86,7,1,7,0.00
2013-9-28,83,63,50,67,58,49,99,85,57,30.03,29.91,5,1,9,0.00
2013-9-29,83,64,48,69,59,48,99,87,59,29.92,29.77,8,1,8,0.00
2013-9-30,77,63,54,70,62,54,99,96,76,29.83,29.76,9,1,9,0.00
2013-10-1,82,67,55,73,64,55,99,90,67,29.86,29.78,13,2,13,0.01
2013-10-2,86,69,56,76,66,56,99,91,69,29.88,29.81,11,2,11,0.08
2013-10-3,86,69,59,79,67,58,99,96,76,29.88,29.79,11,1,11,0.30
2013-10-4,87,71,62,80,69,62,99,94,73,29.89,29.81,11,1,11,0.00
2013-10-5,90,72,64,80,70,63,99,93,69,29.87,29.74,15,2,15,0.22
2013-10-6,91,75,64,79,70,64,99,84,58,29.75,29.51,14,3,14,0.01
2013-10-7,71,56,46,68,53,46,99,91,67,29.91,29.49,17,3,17,0.14
2013-10-8,72,55,41,61,50,40,99,85,56,30.06,29.89,10,1,10,0.00
2013-10-9,46,44,42,45,44,42,99,99,99,30.04,30.02,2,0,2,0.00
2013-10-24,52,39,30,42,35,30,99,87,60,29.90,29.71,17,3,17,0.00
2013-10-25,54,39,30,44,34,30,99,86,57,30.08,29.90,11,2,11,0.01
2013-10-26,54,42,30,37,33,30,99,73,47,29.99,29.65,22,5,22,0.00
2013-10-27,60,44,32,44,36,32,99,79,48,29.86,29.74,15,2,15,0.00
2013-10-28,68,46,27,50,37,27,99,76,41,30.05,29.85,7,1,7,0.00
2013-10-29,68,49,32,50,42,32,99,81,48,30.12,29.97,8,1,8,0.00
2013-10-30,71,55,42,61,51,42,99,90,67,29.98,29.84,7,1,7,0.00
2013-10-31,69,62,57,67,61,57,99,96,80,29.85,29.21,21,4,21,0.11
2013-11-1,69,60,52,67,54,48,99,82,60,29.48,29.13,22,5,22,0.11
2013-11-2,55,50,46,50,48,45,99,93,78,29.60,29.43,14,3,14,0.00
2013-11-17,69,58,50,60,57,50,99,99,89,29.73,29.31,22,5,22,0.39
2013-11-18,60,49,38,49,40,29,99,73,53,29.83,29.44,22,7,22,0.00
2013-11-19,39,34,26,31,28,24,99,80,68,30.14,29.82,19,4,19,0.00
2013-11-20,54,37,23,33,23,16,99,63,30,30.20,30.08,10,2,10,0.00
2013-11-21,64,47,31,49,37,22,87,69,48,30.16,29.94,7,1,7,0.00
2013-11-22,57,48,35,53,48,35,99,98,87,30.00,29.81,21,4,21,0.17
2013-11-23,46,30,18,35,27,15,99,89,61,30.09,29.88,24,6,24,0.00
2013-11-24,28,19,12,20,14,9,95,83,63,30.26,30.08,17,3,17,0.00
2013-11-25,42,27,10,33,15,9,99,65,36,30.21,29.93,12,3,12,0.00
2013-11-26,34,32,30,34,32,30,99,99,99,29.95,29.47,15,1,15,0.08
2013-11-27,32,27,21,32,27,20,99,98,92,29.89,29.47,21,5,21,0.00
2013-11-28,35,25,14,27,22,14,99,88,64,30.15,29.89,16,2,16,0.01
2013-11-29,46,31,22,36,26,22,99,83,54,30.37,30.14,5,1,6,0.05
2013-11-30,46,31,22,32,27,22,99,85,60,30.31,29.93,8,1,8,0.01
2013-12-1,49,40,31,36,34,30,99,81,62,29.94,29.70,11,2,11,0.00
2013-12-2,59,42,35,46,39,35,99,89,62,29.71,29.57,6,2,8,0.00
2013-12-3,64,44,35,53,42,35,99,94,64,29.66,29.60,4,1,4,0.01
2013-12-4,64,50,37,56,48,36,99,94,74,29.74,29.62,6,1,6,0.00
2013-12-5,64,55,37,61,54,34,99,98,92,29.82,29.61,22,4,22,0.66
2013-12-6,39,32,27,37,32,27,99,99,99,30.02,29.78,14,3,15,0.20
2013-12-7,38,26,16,35,24,16,99,92,68,30.30,30.00,0,0,0,0.00
2013-12-8,32,24,16,32,23,15,99,98,93,30.27,29.76,0,0,0,0.00
2013-12-9,40,34,28,37,33,28,99,99,98,29.88,29.69,17,3,17,0.04
2013-12-10,34,26,20,29,22,16,99,86,53,30.01,29.77,16,4,16,0.00
2013-12-11,37,24,17,26,19,16,99,81,55,30.09,29.95,16,3,16,0.00
2013-12-12,29,20,10,18,10,7,99,69,49,30.19,29.96,17,4,17,0.00
2013-12-13,43,28,19,25,18,9,79,67,50,29.99,29.91,14,3,14,0.00
2013-12-14,30,29,28,24,24,23,83,81,79,29.96,29.91,2,0,2,0.00
2013-12-23,31,30,30,30,27,25,96,89,84,30.04,30.01,8,2,8,0.05
2013-12-24,30,22,10,27,18,9,99,84,57,30.26,29.97,17,4,19,0.00
2013-12-25,30,20,9,26,17,8,99,89,68,30.25,29.94,8,1,8,0.00
2013-12-26,42,30,23,35,26,19,99,85,59,30.09,29.88,18,3,18,0.02
2013-12-27,50,35,22,36,28,20,99,77,56,30.11,29.99,11,2,11,0.00
2013-12-28,58,44,35,39,32,26,75,64,49,30.01,29.78,14,4,14,0.00
2013-12-29,44,40,38,42,38,28,99,92,58,29.79,29.44,15,3,15,0.40
2013-12-30,38,26,21,38,24,17,99,96,81,29.93,29.61,20,4,20,0.00
2013-12-31,28,24,20,25,22,19,99,95,79,30.05,29.81,21,3,21,0.00
2014-1-1,45,31,24,34,28,24,99,91,65,30.06,29.78,10,2,10,0.00
2014-1-2,31,23,10,30,23,10,99,99,99,29.78,29.44,25,5,25,0.00